Location: S�tio Afonso Gruber
(26.1760°S, 49.5250°W)
Time: 06:53:29
(UTC+00:00)

PCSat - Visible Passes

Search period start: 06 December 2022 00:00
Search period end: 16 December 2022 00:00
Orbit: 785 x 793 km, 67.1° (Epoch: 05 December)

Date Brightness Start Highest point End Pass type
(mag) Time Alt. Az. Time Alt. Az. Time Alt. Az.
09 Dec 11.7 07:42:05 10° NNE 07:46:23 25° ENE 07:50:42 10° SE visible
10 Dec 12.1 07:12:05 10° NE 07:15:20 16° ENE 07:18:36 10° ESE visible
11 Dec 12.4 06:43:44 10° ENE 06:44:19 10° ENE 06:44:54 10° E visible
12 Dec 9.7 07:50:28 10° NNW 07:55:52 85° ENE 08:01:19 10° SSE visible
13 Dec 10.2 07:19:27 10° N 07:24:43 56° ENE 07:30:02 10° SSE visible
14 Dec 10.8 06:48:49 11° N 06:53:37 37° ENE 06:58:35 10° SE visible
15 Dec 11.4 06:19:04 14° NNE 06:22:33 25° ENE 06:26:54 10° SE visible
